Location: Lecco
(45.8566°N, 9.3977°E)
Time: 11:30:21
(UTC+02:00)

S-56A Canister/Altair - Pass Details

Date: 30 July 2019
Orbit: 633 x 2499 km, 38.9° (Epoch: 23 August)

Event Time Altitude Azimuth Distance (km) Brightness Sun altitude
Rises 09:01:12 0° 270° (W) 4,876 11.1 29.2°
Reaches altitude 10° 09:04:06 10° 267° (W) 4,109 10.8 29.7°
Maximum altitude 09:15:24 59° 192° (SSW) 2,501 10.5 31.6°
Drops below altitude 10° 09:29:55 10° 119° (ESE) 5,158 12.9 34.1°
Sets 09:34:02 0° 116° (ESE) 6,159 13.1 34.8°
